Temp
59 53 51 59 62 64 66 65 63 68 73 67 67 71 74 79 78 79 81 84 86 88 93 95 93 91 90 88 87 86 82 79 76 74 75 78 80 80 82 87 87 86 87 85
55 49 60 63 64 60 61 60 62 67 71 68 68 67 74 78 77 80 80 82 84 87 90 92 91 89 87 86 85 85 83 76 75 77 79 82 83 83 87 87 84 85 85 84
53 58 62 60 58 56 58 58 60 61 66 69 66 64 69 75 79 80 82 84 86 86 87 88 88 88 88 86 84 84 84 76 76 78 77 79 82 84 83 77 76 78 80 80
56 63 60 58 56 58 53 63 64 61 61 56 66 58 67 72 74 76 79 82 85 87 89 90 89 89 88 88 88 86 84 76 76 76 77 79 82 82 84 82 82 78 77 78
51 56 56 55 56 61 56 65 62 62 60 62 61 58 68 73 70 74 77 81 84 87 89 90 91 91 92 92 89 86 82 74 73 74 78 81 81 85 85 85 80 78 76 79
55 61 59 60 63 63 64 60 61 61 61 51 60 60 65 69 71 76 79 82 84 87 90 91 92 92 91 92 89 84 72 71 71 74 77 78 79 80 83 82 82 80 77 79
48 52 58 59 57 62 56 50 37 39 42 48 63 60 65 74 76 79 80 82 85 88 89 89 89 90 88 85 76 75 72 70 72 77 74 75 77 79 79 79 80 81 78 78
39 39 53 55 56 53 54 52 48 38 42 50 61 54 64 74 74 74 76 78 81 84 87 87 87 87 83 73 72 71 71 69 71 70 70 73 78 78 76 72 78 71 72 70
44 44 58 61 60 57 53 49 64 56 58 55 57 62 66 72 70 71 74 77 78 81 83 83 83 81 70 69 67 68 69 70 70 71 72 72 72 72 72 72 75 75 74 74
46 40 55 58 59 59 57 63 48 56 43 43 54 57 61 63 66 68 69 60 59 60 61 62 63 64 65 67 70 72 74 73 73 74 74 74 72 72 71 71 69 68 69 72
41 40 47 54 47 51 55 51 56 59 57 49 48 56 68 68 69 66 58 55 55 55 56 58 60 63 66 70 74 73 74 73 72 73 72 71 69 68 67 67 67 67 68 69
42 41 36 48 54 60 62 58 58 51 50 59 59 51 68 69 66 56 52 53 53 55 56 58 60 64 69 71 74 73 73 73 72 71 69 68 67 66 62 62 63 64 67 68
41 39 32 36 44 47 48 61 62 62 61 54 51 48 62 55 52 52 51 51 53 54 56 58 61 63 67 71 71 71 71 70 70 69 66 64 62 61 59 59 59 62 64 66
43 38 37 42 44 47 43 54 61 60 52 56 58 49 54 50 50 51 51 52 53 55 56 59 63 67 69 68 69 69 69 70 69 69 66 63 62 60 60 60 59 61 62 64
38 34 46 55 51 48 51 56 59 56 58 53 56 53 51 50 50 51 52 54 55 56 59 62 64 65 65 65 65 66 67 67 67 66 64 63 62 63 62 60 61 62 62 64
40 35 43 48 51 49 49 58 58 59 58 60 59 47 53 53 52 51 53 55 55 58 62 62 63 63 63 63 63 63 64 63 65 61 58 61 62 63 62 62 62 62 62 63
36 36 40 37 48 44 36 53 54 58 63 58 49 47 49 48 49 50 51 54 54 57 58 59 59 59 59 60 60 61 62 64 63 63 62 62 62 62 61 62 62 60 60 61
36 35 40 35 42 33 49 62 59 58 60 57 49 49 49 47 48 50 52 52 53 56 58 57 58 58 57 61 61 62 62 61 61 60 59 59 59 58 59 60 59 58 60 59
40 39 38 36 38 48 52 57 57 56 52 58 50 47 46 47 47 44 52 55 55 55 57 58 58 58 58 59 60 61 60 60 58 57 57 56 58 57 57 56 55 55 56 56
44 43 39 49 40 36 49 59 66 64 44 59 53 48 49 52 40 38 47 51 53 53 54 55 57 57 56 57 59 58 57 57 55 55 56 57 58 57 55 54 54 53 54 55
38 43 43 47 44 45 58 62 67 48 51 55 52 53 55 53 47 43 47 47 50 50 48 49 51 53 55 57 57 54 54 53 55 56 57 56 55 56 54 52 53 52 51 50
37 44 44 50 44 38 57 62 55 53 55 52 53 51 47 47 47 45 46 47 48 47 47 47 47 48 53 56 56 52 50 52 55 55 54 54 54 55 54 51 51 51 48 47
39 45 43 40 38 48 60 59 61 59 55 50 49 52 53 51 47 45 45 48 46 46 48 54 54 53 54 54 54 51 49 50 52 52 51 52 53 53 52 50 48 47 44 41
47 54 43 43 42 48 55 61 61 57 53 51 52 52 51 46 46 45 45 45 47 50 53 55 55 53 52 54 53 53 49 49 49 48 49 51 51 51 49 47 45 45 43 41
42 48 41 40 43 46 50 53 54 54 54 53 55 51 47 49 48 48 45 46 50 52 55 55 53 53 52 53 53 53 53 50 47 45 46 49 47 48 46 45 42 41 40 38
40 43 42 37 44 43 45 52 54 51 49 50 48 46 53 56 53 52 53 54 54 53 54 53 53 53 53 53 53 53 54 51 46 44 44 45 42 44 50 46 44 38 38 38
MSLP
1004.56 1004.26 1001.19 999.60 1000.51 1000.30 998.80 998.03 997.76 997.94 998.54 999.24 998.48 997.93 998.14 998.25 998.61 998.42 998.50 998.11 998.26 998.33 998.74 999.50 1000.59 1001.56 1002.35 1003.29 1003.94 1004.70 1005.67 1006.68 1007.67 1008.27 1008.81 1008.99 1009.30 1009.65 1009.82 1009.89 1010.07 1010.37 1010.46 1010.83
1003.24 1001.42 1000.42 1001.40 1000.65 1000.55 999.87 998.80 997.89 998.27 998.43 998.85 997.91 997.62 997.54 997.38 997.73 997.93 997.95 997.97 997.96 998.29 998.50 998.91 1000.11 1001.11 1002.07 1002.96 1003.72 1004.55 1005.42 1006.55 1007.28 1007.78 1008.13 1008.53 1008.62 1009.26 1009.27 1009.65 1010.14 1010.20 1010.43 1010.69
1000.70 999.53 1000.04 1000.30 1000.34 999.99 999.64 998.71 998.31 998.26 998.38 998.61 998.09 997.06 996.57 996.54 996.87 997.21 997.33 997.45 997.45 997.53 997.93 998.68 999.59 1000.57 1001.40 1002.41 1003.45 1004.22 1004.94 1006.32 1007.08 1007.47 1008.23 1008.66 1008.82 1008.90 1009.21 1010.04 1010.42 1010.64 1010.77 1010.91
1000.04 999.46 998.87 999.72 999.34 999.68 998.82 999.19 998.91 998.96 998.18 997.32 997.76 994.86 994.67 995.28 995.36 995.94 996.39 996.67 996.73 996.93 997.60 998.12 998.99 999.85 1000.81 1001.74 1002.91 1004.03 1004.93 1006.21 1007.10 1007.59 1007.99 1008.05 1007.93 1008.05 1008.50 1009.26 1009.91 1010.50 1010.80 1010.95
999.27 998.97 998.79 998.57 998.47 999.02 998.40 999.18 999.34 999.20 998.41 997.20 996.66 996.01 993.03 994.02 994.13 994.49 995.35 995.72 996.12 996.38 996.86 997.47 998.30 999.24 1000.15 1001.18 1002.50 1003.96 1005.12 1006.53 1007.36 1007.87 1007.91 1008.02 1008.03 1008.15 1008.55 1008.92 1009.62 1010.18 1010.64 1010.52
999.62 999.35 998.43 997.71 998.31 998.68 999.41 999.29 999.23 999.43 998.36 996.81 995.70 995.15 992.85 992.71 993.12 993.72 994.46 994.94 995.43 995.88 996.33 997.07 997.96 999.01 1000.08 1001.23 1002.53 1004.16 1005.98 1006.93 1007.56 1007.78 1007.84 1008.13 1008.33 1008.47 1008.55 1009.02 1009.23 1009.67 1010.42 1010.53
999.67 998.84 998.52 998.50 997.97 998.43 999.19 999.04 998.97 998.51 997.34 994.74 994.97 994.39 993.03 992.46 993.19 993.38 993.79 994.44 995.00 995.58 996.01 997.01 998.04 999.04 1000.30 1001.98 1003.98 1005.24 1006.20 1007.00 1007.38 1007.46 1008.12 1008.52 1008.64 1008.83 1009.17 1009.28 1009.33 1009.58 1010.21 1010.52
998.59 997.69 997.41 998.42 996.91 996.99 997.71 997.85 995.49 994.44 994.11 993.40 994.33 993.15 993.03 993.77 994.76 995.32 995.35 995.43 996.04 996.26 996.53 997.70 998.57 999.58 1001.44 1003.72 1004.91 1005.78 1006.40 1007.07 1007.55 1008.01 1008.52 1008.96 1008.80 1009.28 1009.85 1010.41 1009.97 1010.93 1011.06 1011.72
997.79 996.79 996.26 996.17 997.07 997.20 997.16 996.79 994.56 993.56 993.95 993.06 993.34 993.55 994.17 994.39 995.52 996.19 996.41 996.75 997.10 997.46 997.98 998.83 999.99 1001.09 1003.22 1004.47 1005.61 1006.37 1006.82 1007.45 1007.95 1008.39 1009.08 1009.61 1010.06 1010.32 1010.66 1011.16 1011.30 1011.51 1011.84 1012.17
999.69 998.01 996.28 996.40 996.86 996.97 996.12 995.97 994.90 993.44 992.34 992.08 992.24 993.02 992.53 994.75 995.83 997.25 997.99 999.76 1000.61 1001.14 1001.58 1002.26 1003.02 1003.84 1004.53 1005.22 1005.72 1006.32 1006.96 1007.58 1008.20 1008.81 1009.15 1009.75 1010.06 1010.36 1011.26 1011.88 1012.32 1012.78 1012.81 1012.88
1001.29 999.96 997.25 996.94 996.48 995.29 995.25 995.37 994.64 993.30 992.01 991.25 991.62 992.96 993.56 994.71 996.56 998.41 1000.71 1001.88 1002.68 1003.12 1003.48 1003.98 1004.49 1005.01 1005.34 1005.64 1006.19 1006.98 1007.70 1008.19 1008.71 1009.48 1010.00 1010.35 1010.57 1011.02 1011.84 1012.38 1012.77 1013.29 1013.47 1013.50
1001.10 1000.03 998.16 996.31 996.66 996.10 994.44 994.62 994.29 992.52 992.00 991.43 991.37 994.87 995.88 996.74 998.80 1000.99 1002.45 1003.46 1004.19 1004.61 1004.89 1005.10 1005.43 1005.60 1005.82 1006.22 1006.85 1007.64 1008.41 1008.97 1009.74 1010.43 1011.13 1011.61 1011.81 1012.05 1012.75 1012.52 1012.57 1013.79 1013.74 1013.97
1001.20 1000.06 998.87 997.86 997.51 997.48 995.80 994.03 993.48 992.93 992.03 991.81 992.05 995.93 998.11 1000.17 1001.51 1002.90 1003.66 1004.66 1005.31 1005.62 1005.82 1006.01 1006.26 1006.49 1006.82 1007.29 1007.91 1008.61 1009.47 1010.19 1010.86 1011.46 1012.37 1012.80 1013.35 1013.28 1012.65 1012.82 1011.88 1013.15 1013.92 1014.11
1001.43 1000.09 997.78 995.05 994.19 995.68 995.94 994.20 993.51 993.02 992.64 992.36 992.97 996.55 999.29 1001.34 1002.54 1003.78 1004.68 1005.40 1005.83 1006.19 1006.49 1006.74 1006.95 1007.22 1007.81 1008.47 1008.89 1009.69 1010.43 1011.15 1011.54 1012.05 1012.58 1012.92 1013.14 1013.30 1012.09 1012.45 1013.55 1014.17 1014.46 1014.50
1001.84 999.83 996.86 994.23 995.30 995.54 995.38 994.08 993.65 993.55 993.39 993.36 994.62 997.15 1000.13 1002.04 1003.27 1004.45 1005.35 1006.01 1006.28 1006.60 1006.97 1007.51 1008.02 1008.56 1009.16 1009.59 1010.25 1011.08 1011.56 1012.05 1012.45 1012.68 1012.73 1013.09 1013.43 1013.02 1013.55 1014.08 1014.47 1014.67 1014.67 1014.65
1001.72 1000.01 997.70 995.91 995.97 995.89 995.00 993.81 994.00 994.07 994.47 994.44 995.84 999.24 1001.42 1003.12 1004.43 1005.46 1006.09 1006.39 1006.84 1007.27 1007.83 1008.58 1009.26 1009.66 1010.33 1010.90 1011.40 1012.10 1012.47 1012.94 1012.97 1013.39 1013.27 1013.43 1014.04 1013.85 1014.36 1014.60 1014.69 1014.63 1014.72 1014.67
1002.57 1000.97 998.40 996.93 996.30 996.72 996.53 994.26 994.99 995.10 995.29 996.14 997.87 1000.50 1002.50 1004.24 1005.43 1006.25 1006.99 1007.63 1008.23 1008.78 1009.28 1009.93 1010.59 1011.25 1011.87 1012.36 1012.46 1012.94 1013.25 1013.45 1013.58 1013.66 1014.14 1014.45 1014.41 1014.61 1014.82 1014.90 1014.80 1014.90 1014.73 1014.41
1002.73 1001.00 998.92 997.81 996.99 996.25 995.37 994.43 995.36 995.58 996.22 998.02 999.95 1002.04 1003.72 1005.21 1006.66 1007.76 1008.69 1009.11 1009.58 1010.07 1010.45 1011.14 1011.93 1012.54 1013.10 1013.42 1013.60 1013.68 1013.88 1014.11 1014.33 1014.74 1015.01 1015.12 1015.15 1015.24 1015.27 1015.17 1015.18 1015.12 1014.78 1014.53
1002.34 1001.10 999.46 998.24 996.03 995.64 995.66 995.06 995.19 996.05 997.71 999.55 1000.64 1003.38 1005.21 1006.40 1007.71 1009.63 1010.20 1010.57 1010.80 1011.38 1011.89 1012.46 1013.18 1013.77 1014.17 1014.18 1014.10 1014.24 1014.50 1014.82 1015.25 1015.53 1015.67 1015.84 1015.83 1015.82 1015.80 1015.84 1015.91 1015.66 1015.40 1014.99
1001.49 1000.90 999.74 997.16 996.29 995.89 996.07 995.66 995.58 996.67 999.09 1000.24 1001.57 1003.66 1005.06 1006.48 1008.71 1011.54 1012.09 1012.22 1012.72 1013.09 1013.46 1013.76 1014.13 1014.59 1014.81 1014.99 1015.09 1015.21 1015.48 1015.90 1016.21 1016.37 1016.37 1016.39 1016.32 1016.31 1016.36 1016.49 1016.24 1016.13 1015.80 1015.18
1001.30 1000.14 998.83 997.38 997.12 997.37 996.96 996.53 996.45 997.12 999.35 1001.28 1003.56 1004.30 1005.43 1006.94 1009.03 1012.00 1012.78 1013.44 1013.88 1014.23 1014.96 1015.49 1015.58 1015.50 1015.71 1015.88 1016.09 1016.27 1016.64 1016.86 1017.02 1017.01 1016.95 1016.96 1016.97 1016.72 1016.96 1016.96 1016.81 1016.68 1016.46 1016.18
1001.50 999.99 999.29 998.34 998.41 999.08 998.66 997.07 997.10 999.32 1000.72 1002.33 1004.27 1005.85 1007.12 1008.90 1010.96 1012.57 1013.70 1014.31 1014.90 1015.38 1015.94 1016.29 1016.33 1016.54 1016.65 1016.75 1016.86 1017.21 1017.68 1017.90 1017.66 1017.53 1017.58 1017.71 1017.52 1017.26 1017.35 1017.32 1017.15 1017.06 1017.02 1016.65
1002.00 1000.98 1000.79 1001.42 1001.88 1000.89 999.48 999.27 999.76 1000.97 1001.40 1004.12 1005.16 1006.82 1007.93 1009.60 1011.79 1013.33 1014.39 1015.09 1015.84 1016.08 1016.17 1016.31 1016.60 1017.00 1017.38 1017.65 1017.70 1017.88 1018.55 1018.64 1018.49 1018.34 1018.20 1017.95 1017.93 1017.84 1017.71 1017.63 1017.64 1017.66 1017.88 1017.80
1002.16 1001.50 1002.02 1002.64 1003.33 1002.15 1001.00 1000.55 1001.47 1002.93 1004.19 1005.50 1006.80 1007.80 1009.14 1010.70 1012.61 1013.95 1015.09 1015.81 1016.19 1016.51 1016.50 1016.81 1017.09 1017.40 1017.78 1018.25 1018.38 1018.60 1019.33 1019.42 1019.22 1019.02 1018.76 1018.56 1018.32 1018.24 1018.50 1018.51 1018.64 1018.54 1018.68 1018.66
1004.68 1003.50 1003.94 1004.64 1004.74 1004.27 1003.97 1003.78 1004.04 1004.91 1005.98 1007.06 1008.43 1009.69 1010.70 1011.44 1013.30 1014.46 1015.54 1016.29 1016.60 1016.69 1016.90 1017.34 1017.65 1018.01 1018.41 1018.72 1018.91 1019.26 1019.48 1019.60 1019.50 1019.58 1019.46 1019.09 1019.20 1018.99 1019.03 1019.26 1019.60 1019.55 1019.94 1019.92
1006.67 1005.38 1005.12 1006.12 1005.92 1005.93 1006.12 1005.89 1006.14 1006.44 1007.69 1009.18 1010.03 1010.70 1011.72 1012.58 1013.62 1014.87 1015.49 1016.26 1016.76 1017.21 1017.60 1017.95 1018.34 1018.65 1018.97 1019.24 1019.52 1019.68 1019.62 1019.90 1020.14 1020.12 1020.05 1020.09 1020.02 1019.79 1019.20 1019.37 1019.70 1020.31 1020.38 1020.38
Wind_Speed
23 19 28 33 28 22 16 23 22 15 14 20 25 21 21 14 11 20 19 16 17 19 17 16 15 14 13 14 15 16 14 12 9 8 8 8 9 7 7 8 6 8 8 9
16 28 30 22 22 26 25 20 18 17 18 15 16 20 21 22 21 15 16 18 19 18 19 16 13 13 14 15 15 15 14 12 10 8 8 7 6 7 6 6 5 6 7 8
19 13 26 27 25 25 26 27 14 14 17 19 15 20 20 21 22 21 21 18 18 19 21 17 15 15 15 15 16 15 15 14 10 11 7 8 7 5 7 4 5 5 6 7
21 22 14 25 29 25 27 24 17 14 12 13 19 8 24 23 21 24 22 21 20 20 19 19 17 16 14 15 14 13 13 13 9 12 11 11 8 6 5 6 5 5 7 7
19 21 26 23 29 27 23 22 25 19 16 14 17 11 7 17 21 18 22 21 20 20 21 20 18 16 16 13 12 12 12 11 10 8 9 8 6 4 4 4 5 4 5 6
18 10 14 29 21 23 20 19 23 19 16 15 19 17 14 16 18 20 20 21 22 20 20 20 17 16 13 11 12 12 13 10 10 9 8 6 6 4 3 3 4 5 5 5
18 20 20 20 27 25 20 17 10 14 14 17 23 16 10 13 10 12 19 22 22 21 19 16 17 15 14 12 12 11 14 13 10 10 8 7 6 6 4 1 1 2 4 4
8 9 20 20 18 19 27 24 15 24 23 21 8 19 12 9 8 1 2 4 9 14 14 16 17 15 17 14 14 14 15 14 13 12 11 9 6 7 6 8 7 4 5 4
5 9 17 22 22 24 29 27 25 14 23 13 13 5 3 8 10 7 10 13 14 14 16 17 16 15 14 15 16 16 17 17 16 15 13 12 12 11 11 11 8 7 7 5
6 9 10 19 24 26 27 26 23 12 22 19 17 17 9 18 15 12 13 14 12 13 15 16 15 16 14 14 16 17 18 19 18 16 14 13 14 14 12 10 10 8 6 5
5 3 7 19 17 24 24 21 20 18 12 14 14 11 7 18 17 16 13 12 12 13 14 15 15 16 16 18 19 19 19 19 17 15 13 13 13 14 11 10 10 8 7 6
6 5 2 27 8 20 20 23 27 11 16 14 8 10 3 13 15 16 14 13 15 15 17 17 16 16 19 20 19 18 16 16 15 13 12 11 12 12 10 10 11 6 6 6
3 6 6 6 6 6 10 27 28 19 7 11 9 10 8 16 16 15 15 15 16 19 18 16 16 16 19 19 17 17 15 14 13 12 11 10 8 8 10 9 13 11 9 9
9 4 8 9 17 14 15 21 28 19 10 12 4 18 17 16 17 16 16 17 18 18 17 16 16 18 18 17 17 16 15 13 12 11 11 11 10 9 14 13 9 6 6 7
6 4 8 6 22 13 22 27 29 20 17 5 18 18 18 17 17 18 18 19 20 21 20 18 18 17 17 17 16 14 13 12 10 10 12 12 10 11 10 7 5 5 6 7
10 7 7 17 22 15 12 24 22 17 7 7 19 17 18 17 16 17 18 20 21 20 21 19 18 18 16 15 14 13 12 9 10 9 11 11 9 9 8 7 6 5 6 6
6 7 5 4 20 19 3 19 22 10 17 11 18 14 21 18 16 15 17 19 20 19 18 18 17 15 13 13 13 12 11 10 11 12 11 9 9 8 7 7 6 7 6 7
6 7 4 9 16 8 11 19 28 15 11 20 22 18 19 20 19 17 16 18 18 18 18 17 15 14 12 12 12 11 11 11 11 11 10 10 9 8 8 8 8 8 8 8
11 4 3 3 1 21 13 11 26 17 11 23 21 24 24 23 23 15 14 16 17 17 16 15 14 13 12 12 12 12 12 12 11 10 10 9 8 8 8 8 8 8 8 8
5 2 3 10 6 5 13 11 6 19 8 24 28 25 26 20 9 5 12 16 17 16 15 14 14 13 13 12 11 11 12 10 10 9 8 8 8 8 8 8 8 9 9 9
3 1 2 5 6 7 9 2 11 16 11 21 19 20 22 11 11 16 15 16 16 16 15 13 13 12 12 11 11 12 10 10 9 8 8 9 9 6 8 7 7 8 8 9
2 2 3 2 6 7 12 4 3 10 21 22 19 18 23 27 25 19 17 17 16 16 15 13 11 11 11 11 10 11 10 8 8 8 8 7 7 7 7 8 8 9 10 11
3 6 4 7 4 6 3 8 16 19 25 21 22 22 28 27 23 20 17 17 14 13 10 12 12 11 11 11 10 11 10 9 7 6 7 8 8 9 8 8 9 7 9 8
3 8 5 2 8 12 11 17 18 22 23 21 22 24 25 26 22 21 17 15 13 12 12 11 11 11 11 10 11 11 9 7 7 8 8 8 9 9 10 8 8 7 8 8
6 8 5 7 9 15 15 18 22 24 25 24 25 24 24 25 22 19 15 13 13 12 12 10 10 10 10 10 11 10 8 8 7 8 7 8 7 9 8 8 8 7 9 10
9 5 3 4 9 10 9 15 23 25 25 24 25 22 20 23 23 19 16 14 13 12 11 11 11 10 9 9 9 9 9 10 8 8 7 8 7 6 6 7 6 10 10 10
Wind_Direction
193 205 213 210 217 232 261 238 224 215 226 211 225 229 221 208 214 215 228 212 206 208 206 197 191 198 195 192 194 192 186 175 164 159 175 175 184 188 191 204 204 211 214 221
179 222 226 226 224 227 235 243 232 243 205 214 217 232 239 221 223 212 213 218 217 212 210 200 189 192 188 190 194 194 180 161 164 169 193 177 175 187 192 189 207 224 225 214
205 223 217 213 214 216 222 225 224 228 213 221 246 237 225 229 224 223 226 227 214 210 207 200 195 191 194 193 191 191 185 158 183 148 150 163 168 171 186 176 193 209 221 213
235 240 252 209 214 207 216 214 214 212 195 212 208 250 203 219 213 215 218 221 219 206 205 201 194 194 191 197 189 185 178 143 170 145 171 178 186 190 195 201 184 196 209 212
222 224 227 213 212 211 228 207 220 215 239 243 182 238 210 200 210 198 208 211 212 209 203 201 195 197 202 194 174 168 154 141 145 168 178 183 207 167 171 182 162 202 205 219
245 257 245 223 211 214 209 225 202 215 228 223 224 216 209 190 210 204 193 206 205 208 204 203 195 196 187 178 160 136 126 128 145 169 172 187 162 168 167 171 207 167 203 201
228 248 234 274 206 201 198 195 174 196 208 222 205 216 249 179 178 214 193 201 204 206 207 190 185 180 167 139 123 136 134 136 155 136 149 158 159 142 135 274 175 154 149 203
229 210 212 206 218 187 190 186 192 181 191 201 239 214 190 149 113 175 159 215 195 207 190 184 173 163 131 141 143 133 132 123 116 99 95 91 99 70 82 52 57 57 71 59
260 243 177 191 205 183 187 198 212 205 201 209 163 182 111 160 160 145 156 155 145 150 158 147 140 114 118 128 121 123 119 117 114 111 107 99 93 89 77 65 65 71 54 86
302 269 179 176 202 191 186 200 220 230 185 211 172 193 175 181 164 144 133 98 101 90 90 97 104 111 113 120 127 126 120 116 115 115 111 105 102 90 88 87 79 70 60 42
236 246 167 173 197 194 181 202 204 218 206 196 169 161 65 161 146 132 116 112 105 99 100 102 106 111 116 117 115 113 112 111 107 106 105 101 95 92 87 86 79 53 45 24
209 171 216 193 194 215 200 193 207 212 188 220 193 107 335 114 107 116 109 103 99 100 106 106 109 117 117 112 107 102 100 99 96 93 89 87 92 100 93 83 72 45 34 359
245 187 166 192 192 198 216 199 206 207 223 207 190 118 112 100 110 111 110 112 111 105 97 97 101 105 112 107 103 98 95 95 98 102 101 93 86 85 82 62 55 25 360 342
168 251 251 187 190 159 202 218 208 201 235 178 210 135 143 133 125 121 117 114 108 105 107 111 108 106 100 99 95 93 90 88 88 90 84 75 59 46 50 45 32 5 339 319
15 262 250 181 140 157 203 197 197 210 217 261 134 142 148 139 131 125 121 119 114 108 104 104 102 100 96 91 88 83 77 72 73 74 67 53 49 51 46 39 12 342 321 317
338 325 325 126 148 161 189 179 188 198 179 264 134 119 126 124 118 121 125 118 111 110 106 102 99 96 91 90 87 84 78 83 87 88 72 53 37 42 33 16 356 338 326 321
312 330 308 118 154 140 163 202 160 209 190 149 141 124 121 122 120 114 109 111 111 111 107 102 92 85 82 79 81 77 73 68 62 60 55 45 34 33 22 8 358 351 338 336
297 311 317 115 127 166 139 200 154 188 114 89 102 122 109 100 91 96 107 112 111 110 106 100 96 90 84 84 86 84 73 65 58 53 47 38 30 24 14 6 2 351 344 341
218 304 45 132 256 119 126 174 164 164 102 122 123 112 110 103 85 60 99 101 100 99 98 93 91 90 85 74 67 69 64 57 54 49 43 37 29 27 20 15 2 357 343 338
87 276 285 160 100 114 141 85 177 134 139 152 147 142 138 136 115 110 106 109 105 95 87 87 83 84 75 65 63 66 61 56 53 45 44 37 30 29 23 11 6 358 349 351
345 344 305 97 104 90 50 74 190 182 141 133 143 142 146 130 102 126 116 101 94 91 91 87 76 75 71 64 64 64 59 51 40 39 36 32 25 15 29 14 17 7 4 357
300 280 13 317 112 109 355 216 113 107 113 123 121 111 110 115 118 116 111 108 100 95 89 81 81 81 66 61 65 63 53 36 36 35 34 28 24 28 30 23 20 19 12 2
342 9 55 28 37 302 358 76 118 126 124 118 117 125 121 120 118 117 114 105 101 97 101 92 85 84 74 64 52 58 43 35 26 35 37 34 32 34 30 34 23 24 18 12
64 31 57 130 9 56 62 91 102 114 115 116 114 118 120 118 119 114 112 111 108 108 101 101 96 85 77 66 59 56 50 38 42 39 27 35 42 36 38 34 32 28 21 18
356 318 69 89 86 65 76 96 109 114 113 113 113 112 114 120 117 114 112 113 112 105 97 92 87 83 79 68 59 50 46 47 48 48 32 39 26 43 43 56 41 29 52 32
338 336 345 61 64 92 83 107 116 109 108 111 116 111 115 116 118 121 112 109 106 103 98 89 83 82 82 75 64 51 50 59 46 46 37 33 37 13 49 46 56 66 32 45